Time,TemperatureF,DewpointF,PressureIn,WindDirection,WindDirectionDegrees,WindSpeedMPH,WindSpeedGustMPH,Humidity,HourlyPrecipIn,Conditions,Clouds,dailyrainin,SoftwareType,DateUTC
2013-04-14 00:03:00,64.6,20.1,27.76,SSW,198,6.0,8.3,18,0.00,,,-99.99,FreeWX-Wi 1.01,2013-04-14 04:03:00,
2013-04-14 00:08:00,64.4,19.9,27.76,SSW,201,5.0,8.3,18,0.00,,,-99.99,FreeWX-Wi 1.01,2013-04-14 04:08:00,
2013-04-14 00:13:00,64.2,19.8,27.76,SSW,202,5.0,6.7,18,0.00,,,-99.99,FreeWX-Wi 1.01,2013-04-14 04:13:00,
2013-04-14 00:18:00,64.0,19.8,27.76,SSW,201,5.0,8.1,18,0.00,,,-99.99,FreeWX-Wi 1.01,2013-04-14 04:18:00,
2013-04-14 00:23:00,63.9,19.6,27.76,SSW,201,5.0,8.3,18,0.00,,,-99.99,FreeWX-Wi 1.01,2013-04-14 04:23:00,
2013-04-14 00:28:00,63.7,19.4,27.76,SSW,202,4.0,7.6,18,0.00,,,-99.99,FreeWX-Wi 1.01,2013-04-14 04:28:00,
2013-04-14 00:33:00,63.5,19.2,27.76,SSW,200,4.0,6.3,18,0.00,,,-99.99,FreeWX-Wi 1.01,2013-04-14 04:33:00,
2013-04-14 00:38:00,63.3,22.6,27.76,SSW,196,4.0,5.8,21,0.00,,,-99.99,FreeWX-Wi 1.01,2013-04-14 04:38:00,
2013-04-14 00:43:00,63.1,22.6,27.76,SSW,193,4.0,8.7,21,0.00,,,-99.99,FreeWX-Wi 1.01,2013-04-14 04:43:00,
2013-04-14 00:48:00,63.0,22.5,27.73,South,190,4.0,8.1,21,0.00,,,-99.99,FreeWX-Wi 1.01,2013-04-14 04:48:00,
2013-04-14 00:53:00,63.0,22.5,27.73,South,186,5.0,8.3,21,0.00,,,-99.99,FreeWX-Wi 1.01,2013-04-14 04:53:00,
2013-04-14 00:58:00,62.8,22.3,27.73,South,182,5.0,6.3,21,0.00,,,-99.99,FreeWX-Wi 1.01,2013-04-14 04:58:00,
2013-04-14 01:03:00,62.6,22.1,27.73,South,181,5.0,7.6,21,0.00,,,-99.99,FreeWX-Wi 1.01,2013-04-14 05:03:00,
2013-04-14 01:08:00,62.2,21.7,27.73,South,180,5.0,7.6,21,0.00,,,-99.99,FreeWX-Wi 1.01,2013-04-14 05:08:00,
2013-04-14 01:13:00,62.1,21.7,27.73,South,180,5.0,8.3,21,0.00,,,-99.99,FreeWX-Wi 1.01,2013-04-14 05:13:00,
2013-04-14 01:18:00,61.9,24.6,27.73,South,179,5.0,6.7,24,0.00,,,-99.99,FreeWX-Wi 1.01,2013-04-14 05:18:00,
2013-04-14 01:23:00,61.9,24.6,27.73,South,179,5.0,8.1,24,0.00,,,-99.99,FreeWX-Wi 1.01,2013-04-14 05:23:00,
2013-04-14 01:28:00,61.7,24.6,27.73,South,178,5.0,6.3,24,0.00,,,-99.99,FreeWX-Wi 1.01,2013-04-14 05:28:00,
2013-04-14 01:33:00,61.5,24.4,27.73,South,176,5.0,6.7,24,0.00,,,-99.99,FreeWX-Wi 1.01,2013-04-14 05:33:00,
2013-04-14 01:38:00,61.3,24.3,27.73,South,176,5.0,6.3,24,0.00,,,-99.99,FreeWX-Wi 1.01,2013-04-14 05:38:00,
2013-04-14 01:43:00,61.3,24.3,27.73,South,176,5.0,8.7,24,0.00,,,-99.99,FreeWX-Wi 1.01,2013-04-14 05:43:00,
2013-04-14 01:48:00,61.3,24.3,27.70,South,176,5.0,7.2,24,0.00,,,-99.99,FreeWX-Wi 1.01,2013-04-14 05:48:00,
2013-04-14 01:53:00,61.2,24.1,27.70,South,177,5.0,6.3,24,0.00,,,-99.99,FreeWX-Wi 1.01,2013-04-14 05:53:00,
2013-04-14 01:58:00,61.0,23.9,27.70,South,175,5.0,6.3,24,0.00,,,-99.99,FreeWX-Wi 1.01,2013-04-14 05:58:00,
2013-04-14 02:03:00,60.6,24.6,27.70,South,173,5.0,5.4,25,0.00,,,-99.99,FreeWX-Wi 1.01,2013-04-14 06:03:00,
2013-04-14 02:08:00,60.3,24.3,27.70,South,171,4.0,4.0,25,0.00,,,-99.99,FreeWX-Wi 1.01,2013-04-14 06:08:00,
2013-04-14 02:13:00,59.9,24.1,27.70,SSE,168,3.0,6.3,25,0.00,,,-99.99,FreeWX-Wi 1.01,2013-04-14 06:13:00,
2013-04-14 02:18:00,59.7,24.8,27.70,SSE,165,3.0,6.3,26,0.00,,,-99.99,FreeWX-Wi 1.01,2013-04-14 06:18:00,
2013-04-14 02:23:00,59.4,24.4,27.70,SSE,162,2.0,2.7,26,0.00,,,-99.99,FreeWX-Wi 1.01,2013-04-14 06:23:00,
2013-04-14 02:28:00,59.2,25.2,27.70,SSE,161,1.0,0.0,27,0.00,,,-99.99,FreeWX-Wi 1.01,2013-04-14 06:28:00,
2013-04-14 02:33:00,58.8,25.0,27.70,SSE,158,1.0,0.0,27,0.00,,,-99.99,FreeWX-Wi 1.01,2013-04-14 06:33:00,
2013-04-14 02:38:00,58.3,24.4,27.70,North,-999,0.0,0.0,27,0.00,,,-99.99,FreeWX-Wi 1.01,2013-04-14 06:38:00,
2013-04-14 02:43:00,58.1,25.2,27.70,North,-999,0.0,0.0,28,0.00,,,-99.99,FreeWX-Wi 1.01,2013-04-14 06:43:00,
2013-04-14 02:48:00,57.9,25.0,27.70,North,-999,0.0,0.0,28,0.00,,,-99.99,FreeWX-Wi 1.01,2013-04-14 06:48:00,
2013-04-14 02:53:00,57.6,24.6,27.70,North,-999,0.0,0.0,28,0.00,,,-99.99,FreeWX-Wi 1.01,2013-04-14 06:53:00,
2013-04-14 02:58:00,57.4,25.3,27.70,North,-999,0.0,0.0,29,0.00,,,-99.99,FreeWX-Wi 1.01,2013-04-14 06:58:00,
2013-04-14 03:03:00,57.2,25.2,27.70,North,-999,0.0,4.5,29,0.00,,,-99.99,FreeWX-Wi 1.01,2013-04-14 07:03:00,
2013-04-14 03:08:00,57.2,26.1,27.70,North,-999,0.0,5.4,30,0.00,,,-99.99,FreeWX-Wi 1.01,2013-04-14 07:08:00,
2013-04-14 03:13:00,57.4,27.0,27.70,SSE,163,1.0,6.3,31,0.00,,,-99.99,FreeWX-Wi 1.01,2013-04-14 07:13:00,
2013-04-14 03:18:00,57.6,28.8,27.70,SSE,167,2.0,6.7,33,0.00,,,-99.99,FreeWX-Wi 1.01,2013-04-14 07:18:00,
2013-04-14 03:23:00,57.7,29.5,27.70,South,170,3.0,8.1,34,0.00,,,-99.99,FreeWX-Wi 1.01,2013-04-14 07:23:00,
2013-04-14 03:28:00,58.1,30.6,27.70,South,171,4.0,6.7,35,0.00,,,-99.99,FreeWX-Wi 1.01,2013-04-14 07:28:00,
2013-04-14 03:33:00,58.3,30.7,27.70,South,172,5.0,6.3,35,0.00,,,-99.99,FreeWX-Wi 1.01,2013-04-14 07:33:00,
2013-04-14 03:38:00,58.5,30.9,27.70,South,174,5.0,8.3,35,0.00,,,-99.99,FreeWX-Wi 1.01,2013-04-14 07:38:00,
2013-04-14 03:43:00,58.6,31.1,27.70,South,174,5.0,7.6,35,0.00,,,-99.99,FreeWX-Wi 1.01,2013-04-14 07:43:00,
2013-04-14 03:49:00,58.8,31.3,27.70,South,173,6.0,8.1,35,0.00,,,-99.99,FreeWX-Wi 1.01,2013-04-14 07:49:00,
2013-04-14 03:54:00,58.8,31.3,27.70,South,173,6.0,8.1,35,0.00,,,-99.99,FreeWX-Wi 1.01,2013-04-14 07:54:00,
2013-04-14 03:59:00,58.6,31.8,27.70,South,173,6.0,7.6,36,0.00,,,-99.99,FreeWX-Wi 1.01,2013-04-14 07:59:00,
2013-04-14 04:04:00,58.6,31.8,27.67,South,174,6.0,8.1,36,0.00,,,-99.99,FreeWX-Wi 1.01,2013-04-14 08:04:00,
2013-04-14 04:09:00,58.6,31.8,27.67,South,173,6.0,7.6,36,0.00,,,-99.99,FreeWX-Wi 1.01,2013-04-14 08:09:00,
2013-04-14 04:14:00,58.6,31.8,27.67,South,174,6.0,8.1,36,0.00,,,-99.99,FreeWX-Wi 1.01,2013-04-14 08:14:00,
2013-04-14 04:19:00,58.5,31.6,27.67,South,174,6.0,8.1,36,0.00,,,-99.99,FreeWX-Wi 1.01,2013-04-14 08:19:00,
2013-04-14 04:24:00,58.5,31.6,27.67,South,175,6.0,8.3,36,0.00,,,-99.99,FreeWX-Wi 1.01,2013-04-14 08:24:00,
2013-04-14 04:29:00,58.5,31.6,27.67,South,175,5.0,5.8,36,0.00,,,-99.99,FreeWX-Wi 1.01,2013-04-14 08:29:00,
2013-04-14 04:34:00,58.5,31.6,27.67,South,175,5.0,6.3,36,0.00,,,-99.99,FreeWX-Wi 1.01,2013-04-14 08:34:00,
2013-04-14 04:39:00,58.3,31.5,27.67,South,175,5.0,5.8,36,0.00,,,-99.99,FreeWX-Wi 1.01,2013-04-14 08:39:00,
2013-04-14 04:44:00,58.1,31.3,27.67,South,175,5.0,6.3,36,0.00,,,-99.99,FreeWX-Wi 1.01,2013-04-14 08:44:00,
2013-04-14 04:49:00,58.1,31.3,27.67,South,175,4.0,6.3,36,0.00,,,-99.99,FreeWX-Wi 1.01,2013-04-14 08:49:00,
2013-04-14 04:54:00,57.9,31.1,27.67,South,175,4.0,5.4,36,0.00,,,-99.99,FreeWX-Wi 1.01,2013-04-14 08:54:00,
2013-04-14 04:59:00,57.7,30.9,27.67,South,176,4.0,4.9,36,0.00,,,-99.99,FreeWX-Wi 1.01,2013-04-14 08:59:00,
2013-04-14 05:04:00,57.6,30.7,27.67,South,176,4.0,4.0,36,0.00,,,-99.99,FreeWX-Wi 1.01,2013-04-14 09:04:00,
2013-04-14 05:09:00,57.0,30.9,27.67,South,175,4.0,4.9,37,0.00,,,-99.99,FreeWX-Wi 1.01,2013-04-14 09:09:00,
2013-04-14 05:14:00,56.7,30.7,27.67,South,174,3.0,4.0,37,0.00,,,-99.99,FreeWX-Wi 1.01,2013-04-14 09:14:00,
2013-04-14 05:19:00,56.3,30.4,27.67,South,174,3.0,4.9,37,0.00,,,-99.99,FreeWX-Wi 1.01,2013-04-14 09:19:00,
2013-04-14 05:24:00,56.1,30.2,27.67,South,173,3.0,4.0,37,0.00,,,-99.99,FreeWX-Wi 1.01,2013-04-14 09:24:00,
2013-04-14 05:29:00,55.9,30.7,27.67,South,171,2.0,4.0,38,0.00,,,-99.99,FreeWX-Wi 1.01,2013-04-14 09:29:00,
2013-04-14 05:34:00,55.8,30.6,27.67,South,171,2.0,0.0,38,0.00,,,-99.99,FreeWX-Wi 1.01,2013-04-14 09:34:00,
2013-04-14 05:39:00,55.6,30.4,27.67,South,171,2.0,4.0,38,0.00,,,-99.99,FreeWX-Wi 1.01,2013-04-14 09:39:00,
2013-04-14 05:44:00,55.2,30.7,27.67,South,172,2.0,5.8,39,0.00,,,-99.99,FreeWX-Wi 1.01,2013-04-14 09:44:00,
2013-04-14 05:49:00,55.2,30.7,27.67,South,174,2.0,4.0,39,0.00,,,-99.99,FreeWX-Wi 1.01,2013-04-14 09:49:00,
2013-04-14 05:54:00,55.0,30.6,27.67,South,174,2.0,4.9,39,0.00,,,-99.99,FreeWX-Wi 1.01,2013-04-14 09:54:00,
2013-04-14 05:59:00,54.9,30.9,27.67,South,176,2.0,4.0,40,0.00,,,-99.99,FreeWX-Wi 1.01,2013-04-14 09:59:00,
2013-04-14 06:04:00,54.7,30.9,27.64,South,177,3.0,4.9,40,0.00,,,-99.99,FreeWX-Wi 1.01,2013-04-14 10:04:00,
2013-04-14 06:09:00,54.5,30.7,27.64,South,179,3.0,4.0,40,0.00,,,-99.99,FreeWX-Wi 1.01,2013-04-14 10:09:00,
2013-04-14 06:14:00,54.3,30.6,27.64,South,178,3.0,3.6,40,0.00,,,-99.99,FreeWX-Wi 1.01,2013-04-14 10:14:00,
2013-04-14 06:19:00,54.1,30.4,27.64,South,177,2.0,0.0,40,0.00,,,-99.99,FreeWX-Wi 1.01,2013-04-14 10:19:00,
2013-04-14 06:24:00,53.8,30.0,27.64,South,175,2.0,0.0,40,0.00,,,-99.99,FreeWX-Wi 1.01,2013-04-14 10:24:00,
2013-04-14 06:29:00,53.6,29.8,27.64,South,175,1.0,0.0,40,0.00,,,-99.99,FreeWX-Wi 1.01,2013-04-14 10:29:00,
2013-04-14 06:34:00,53.1,30.0,27.64,North,-999,0.0,0.0,41,0.00,,,-99.99,FreeWX-Wi 1.01,2013-04-14 10:34:00,
2013-04-14 06:39:00,52.7,29.7,27.64,North,-999,0.0,0.0,41,0.00,,,-99.99,FreeWX-Wi 1.01,2013-04-14 10:39:00,
2013-04-14 06:44:00,52.3,29.3,27.64,North,-999,0.0,0.0,41,0.00,,,-99.99,FreeWX-Wi 1.01,2013-04-14 10:44:00,
2013-04-14 06:49:00,52.0,28.9,27.64,North,-999,0.0,0.0,41,0.00,,,-99.99,FreeWX-Wi 1.01,2013-04-14 10:49:00,
2013-04-14 06:54:00,52.0,29.7,27.64,North,-999,0.0,0.0,42,0.00,,,-99.99,FreeWX-Wi 1.01,2013-04-14 10:54:00,
2013-04-14 06:59:00,52.0,29.7,27.64,North,-999,0.0,0.0,42,0.00,,,-99.99,FreeWX-Wi 1.01,2013-04-14 10:59:00,
2013-04-14 07:04:00,52.0,30.2,27.64,North,-999,0.0,4.0,43,0.00,,,-99.99,FreeWX-Wi 1.01,2013-04-14 11:04:00,
2013-04-14 07:09:00,52.0,30.2,27.64,North,-999,0.0,4.0,43,0.00,,,-99.99,FreeWX-Wi 1.01,2013-04-14 11:09:00,
2013-04-14 07:14:00,52.0,30.7,27.64,North,-999,0.0,3.6,44,0.00,,,-99.99,FreeWX-Wi 1.01,2013-04-14 11:14:00,
2013-04-14 07:19:00,52.0,30.7,27.64,North,-999,0.0,2.7,44,0.00,,,-99.99,FreeWX-Wi 1.01,2013-04-14 11:19:00,
2013-04-14 07:24:00,52.0,30.7,27.64,North,-999,0.0,0.0,44,0.00,,,-99.99,FreeWX-Wi 1.01,2013-04-14 11:24:00,
2013-04-14 07:29:00,51.8,30.6,27.64,North,-999,0.0,0.0,44,0.00,,,-99.99,FreeWX-Wi 1.01,2013-04-14 11:29:00,
2013-04-14 07:34:00,51.8,31.1,27.64,North,-999,0.0,0.0,45,0.00,,,-99.99,FreeWX-Wi 1.01,2013-04-14 11:34:00,
2013-04-14 07:39:00,51.6,30.9,27.64,North,-999,0.0,0.0,45,0.00,,,-99.99,FreeWX-Wi 1.01,2013-04-14 11:39:00,
2013-04-14 07:44:00,51.6,31.5,27.64,North,-999,0.0,0.0,46,0.00,,,-99.99,FreeWX-Wi 1.01,2013-04-14 11:44:00,
2013-04-14 07:49:00,51.6,31.5,27.64,North,-999,0.0,0.0,46,0.00,,,-99.99,FreeWX-Wi 1.01,2013-04-14 11:49:00,
2013-04-14 07:54:00,51.6,31.5,27.64,North,-999,0.0,0.0,46,0.00,,,-99.99,FreeWX-Wi 1.01,2013-04-14 11:54:00,
2013-04-14 07:59:00,51.6,31.5,27.64,North,-999,0.0,0.0,46,0.00,,,-99.99,FreeWX-Wi 1.01,2013-04-14 11:59:00,
2013-04-14 08:04:00,51.6,31.5,27.64,North,-999,0.0,0.0,46,0.00,,,-99.99,FreeWX-Wi 1.01,2013-04-14 12:04:00,
2013-04-14 08:09:00,51.4,31.3,27.64,North,-999,0.0,4.9,46,0.00,,,-99.99,FreeWX-Wi 1.01,2013-04-14 12:09:00,
2013-04-14 08:14:00,51.4,31.8,27.64,SSE,167,1.0,5.4,47,0.00,,,-99.99,FreeWX-Wi 1.01,2013-04-14 12:14:00,
2013-04-14 08:19:00,51.6,32.0,27.64,South,169,1.0,5.4,47,0.00,,,-99.99,FreeWX-Wi 1.01,2013-04-14 12:19:00,
2013-04-14 08:24:00,51.6,32.0,27.64,South,171,2.0,4.9,47,0.00,,,-99.99,FreeWX-Wi 1.01,2013-04-14 12:24:00,
2013-04-14 08:29:00,51.8,32.2,27.64,South,174,3.0,5.4,47,0.00,,,-99.99,FreeWX-Wi 1.01,2013-04-14 12:29:00,
2013-04-14 08:34:00,52.0,32.4,27.64,South,175,3.0,5.4,47,0.00,,,-99.99,FreeWX-Wi 1.01,2013-04-14 12:34:00,
2013-04-14 08:39:00,52.2,32.5,27.64,South,176,3.0,4.0,47,0.00,,,-99.99,FreeWX-Wi 1.01,2013-04-14 12:39:00,
2013-04-14 08:44:00,52.5,33.4,27.64,South,177,3.0,3.6,48,0.00,,,-99.99,FreeWX-Wi 1.01,2013-04-14 12:44:00,
2013-04-14 08:49:00,52.9,33.8,27.64,South,174,3.0,5.4,48,0.00,,,-99.99,FreeWX-Wi 1.01,2013-04-14 12:49:00,
2013-04-14 08:54:00,53.2,34.0,27.64,South,174,2.0,4.5,48,0.00,,,-99.99,FreeWX-Wi 1.01,2013-04-14 12:54:00,
2013-04-14 08:59:00,53.8,34.5,27.64,South,172,2.0,4.0,48,0.00,,,-99.99,FreeWX-Wi 1.01,2013-04-14 12:59:00,
2013-04-14 09:04:00,54.5,35.2,27.67,South,172,2.0,6.3,48,0.00,,,-99.99,FreeWX-Wi 1.01,2013-04-14 13:04:00,
2013-04-14 09:09:00,55.2,36.3,27.67,South,171,2.0,6.3,49,0.00,,,-99.99,FreeWX-Wi 1.01,2013-04-14 13:09:00,
2013-04-14 09:14:00,56.3,37.4,27.67,South,174,3.0,6.3,49,0.00,,,-99.99,FreeWX-Wi 1.01,2013-04-14 13:14:00,
2013-04-14 09:19:00,57.2,37.8,27.67,South,176,4.0,8.3,48,0.00,,,-99.99,FreeWX-Wi 1.01,2013-04-14 13:19:00,
2013-04-14 09:24:00,58.3,38.7,27.67,South,178,4.0,8.3,48,0.00,,,-99.99,FreeWX-Wi 1.01,2013-04-14 13:24:00,
2013-04-14 09:29:00,59.5,39.9,27.67,South,181,5.0,8.1,48,0.00,,,-99.99,FreeWX-Wi 1.01,2013-04-14 13:29:00,
2013-04-14 09:34:00,60.6,40.3,27.67,South,184,5.0,7.6,47,0.00,,,-99.99,FreeWX-Wi 1.01,2013-04-14 13:34:00,
2013-04-14 09:39:00,61.9,40.8,27.67,South,188,5.0,7.6,46,0.00,,,-99.99,FreeWX-Wi 1.01,2013-04-14 13:39:00,
2013-04-14 09:44:00,63.1,41.4,27.67,South,190,5.0,6.3,45,0.00,,,-99.99,FreeWX-Wi 1.01,2013-04-14 13:44:00,
2013-04-14 09:49:00,64.4,41.4,27.67,SSW,195,4.0,8.7,43,0.00,,,-99.99,FreeWX-Wi 1.01,2013-04-14 13:49:00,
2013-04-14 09:54:00,65.7,40.6,27.67,SSW,198,4.0,8.1,40,0.00,,,-99.99,FreeWX-Wi 1.01,2013-04-14 13:54:00,
2013-04-14 09:59:00,66.6,40.1,27.67,SSW,198,4.0,8.3,38,0.00,,,-99.99,FreeWX-Wi 1.01,2013-04-14 13:59:00,
2013-04-14 10:04:00,67.5,38.8,27.67,SSW,198,4.0,8.7,35,0.00,,,-99.99,FreeWX-Wi 1.01,2013-04-14 14:04:00,
2013-04-14 10:09:00,68.4,38.1,27.67,SSW,200,4.0,8.3,33,0.00,,,-99.99,FreeWX-Wi 1.01,2013-04-14 14:09:00,
2013-04-14 10:14:00,69.3,38.1,27.67,SSW,204,5.0,8.7,32,0.00,,,-99.99,FreeWX-Wi 1.01,2013-04-14 14:14:00,
2013-04-14 10:19:00,69.8,37.8,27.64,SSW,206,4.0,8.7,31,0.00,,,-99.99,FreeWX-Wi 1.01,2013-04-14 14:19:00,
2013-04-14 10:24:00,70.7,36.9,27.64,SSW,209,4.0,8.1,29,0.00,,,-99.99,FreeWX-Wi 1.01,2013-04-14 14:24:00,
2013-04-14 10:29:00,71.4,36.7,27.64,SSW,209,4.0,10.1,28,0.00,,,-99.99,FreeWX-Wi 1.01,2013-04-14 14:29:00,
2013-04-14 10:34:00,72.1,36.3,27.64,SW,216,4.0,6.3,27,0.00,,,-99.99,FreeWX-Wi 1.01,2013-04-14 14:34:00,
2013-04-14 10:39:00,73.0,36.1,27.64,SW,220,4.0,8.1,26,0.00,,,-99.99,FreeWX-Wi 1.01,2013-04-14 14:39:00,
2013-04-14 10:44:00,73.8,35.8,27.64,SW,221,4.0,8.7,25,0.00,,,-99.99,FreeWX-Wi 1.01,2013-04-14 14:44:00,
2013-04-14 10:49:00,74.3,36.1,27.64,SW,223,4.0,8.3,25,0.00,,,-99.99,FreeWX-Wi 1.01,2013-04-14 14:49:00,
2013-04-14 10:54:00,75.4,36.1,27.64,SW,223,4.0,8.3,24,0.00,,,-99.99,FreeWX-Wi 1.01,2013-04-14 14:54:00,
2013-04-14 10:59:00,75.9,35.4,27.64,SW,228,4.0,8.1,23,0.00,,,-99.99,FreeWX-Wi 1.01,2013-04-14 14:59:00,
2013-04-14 11:04:00,76.6,34.9,27.64,SW,232,5.0,10.5,22,0.00,,,-99.99,FreeWX-Wi 1.01,2013-04-14 15:04:00,
2013-04-14 11:09:00,77.4,35.6,27.64,SW,233,5.0,8.7,22,0.00,,,-99.99,FreeWX-Wi 1.01,2013-04-14 15:09:00,
2013-04-14 11:14:00,78.1,36.1,27.64,SW,236,5.0,8.7,22,0.00,,,-99.99,FreeWX-Wi 1.01,2013-04-14 15:14:00,
2013-04-14 11:19:00,78.8,35.6,27.64,WSW,237,5.0,10.5,21,0.00,,,-99.99,FreeWX-Wi 1.01,2013-04-14 15:19:00,
2013-04-14 11:24:00,79.5,36.1,27.64,WSW,239,5.0,12.8,21,0.00,,,-99.99,FreeWX-Wi 1.01,2013-04-14 15:24:00,
2013-04-14 11:29:00,80.1,36.5,27.64,WSW,240,5.0,7.6,21,0.00,,,-99.99,FreeWX-Wi 1.01,2013-04-14 15:29:00,
2013-04-14 11:34:00,80.8,36.0,27.64,WSW,240,5.0,11.0,20,0.00,,,-99.99,FreeWX-Wi 1.01,2013-04-14 15:34:00,
2013-04-14 11:39:00,81.1,36.3,27.64,WSW,240,6.0,10.5,20,0.00,,,-99.99,FreeWX-Wi 1.01,2013-04-14 15:39:00,
2013-04-14 11:44:00,82.0,37.0,27.64,WSW,242,6.0,10.5,20,0.00,,,-99.99,FreeWX-Wi 1.01,2013-04-14 15:44:00,
2013-04-14 11:49:00,82.6,36.1,27.64,WSW,244,6.0,10.5,19,0.00,,,-99.99,FreeWX-Wi 1.01,2013-04-14 15:49:00,
2013-04-14 11:54:00,83.1,36.5,27.64,WSW,247,5.0,8.1,19,0.00,,,-99.99,FreeWX-Wi 1.01,2013-04-14 15:54:00,
2013-04-14 11:59:00,84.0,37.2,27.64,WSW,249,6.0,10.1,19,0.00,,,-99.99,FreeWX-Wi 1.01,2013-04-14 15:59:00,
2013-04-14 12:04:00,84.4,36.1,27.64,WSW,250,6.0,13.2,18,0.00,,,-99.99,FreeWX-Wi 1.01,2013-04-14 16:04:00,
2013-04-14 12:09:00,85.1,36.9,27.64,WSW,252,6.0,8.7,18,0.00,,,-99.99,FreeWX-Wi 1.01,2013-04-14 16:09:00,
2013-04-14 12:14:00,85.6,37.2,27.64,WSW,254,6.0,11.0,18,0.00,,,-99.99,FreeWX-Wi 1.01,2013-04-14 16:14:00,
2013-04-14 12:19:00,86.2,37.8,27.64,WSW,255,6.0,11.0,18,0.00,,,-99.99,FreeWX-Wi 1.01,2013-04-14 16:19:00,
2013-04-14 12:24:00,86.9,35.2,27.64,WSW,254,6.0,8.7,16,0.00,,,-99.99,FreeWX-Wi 1.01,2013-04-14 16:24:00,
2013-04-14 12:29:00,87.4,35.8,27.64,WSW,254,6.0,11.4,16,0.00,,,-99.99,FreeWX-Wi 1.01,2013-04-14 16:29:00,
2013-04-14 12:34:00,88.2,34.7,27.64,WSW,256,6.0,12.3,15,0.00,,,-99.99,FreeWX-Wi 1.01,2013-04-14 16:34:00,
2013-04-14 12:39:00,88.5,34.9,27.64,West,259,6.0,11.0,15,0.00,,,-99.99,FreeWX-Wi 1.01,2013-04-14 16:39:00,
2013-04-14 12:44:00,88.9,35.2,27.64,West,261,6.0,10.1,15,0.00,,,-99.99,FreeWX-Wi 1.01,2013-04-14 16:44:00,
2013-04-14 12:49:00,89.4,35.6,27.64,West,261,6.0,12.3,15,0.00,,,-99.99,FreeWX-Wi 1.01,2013-04-14 16:49:00,
2013-04-14 12:54:00,89.8,30.4,27.64,West,266,7.0,15.0,12,0.00,,,-99.99,FreeWX-Wi 1.01,2013-04-14 16:54:00,
2013-04-14 12:59:00,89.8,30.4,27.64,West,267,8.0,16.3,12,0.00,,,-99.99,FreeWX-Wi 1.01,2013-04-14 16:59:00,
2013-04-14 13:04:00,90.1,30.7,27.64,West,268,8.0,14.5,12,0.00,,,-99.99,FreeWX-Wi 1.01,2013-04-14 17:04:00,
2013-04-14 13:09:00,90.5,30.9,27.64,West,264,8.0,15.4,12,0.00,,,-99.99,FreeWX-Wi 1.01,2013-04-14 17:09:00,
2013-04-14 13:14:00,90.7,31.1,27.64,West,263,9.0,15.4,12,0.00,,,-99.99,FreeWX-Wi 1.01,2013-04-14 17:14:00,
2013-04-14 13:19:00,90.5,30.9,27.64,West,263,9.0,15.4,12,0.00,,,-99.99,FreeWX-Wi 1.01,2013-04-14 17:19:00,
2013-04-14 13:24:00,90.5,30.9,27.64,West,266,10.0,17.4,12,0.00,,,-99.99,FreeWX-Wi 1.01,2013-04-14 17:24:00,
2013-04-14 13:29:00,90.7,31.1,27.64,West,266,10.0,12.8,12,0.00,,,-99.99,FreeWX-Wi 1.01,2013-04-14 17:29:00,
2013-04-14 13:34:00,90.9,31.3,27.61,West,264,10.0,15.4,12,0.00,,,-99.99,FreeWX-Wi 1.01,2013-04-14 17:34:00,
2013-04-14 13:39:00,91.0,31.3,27.61,West,263,10.0,10.0,12,0.00,,,-99.99,FreeWX-Wi 1.01,2013-04-14 17:39:00,
2013-04-14 13:44:00,91.2,31.5,27.61,West,266,10.0,15.0,12,0.00,,,-99.99,FreeWX-Wi 1.01,2013-04-14 17:44:00,
2013-04-14 13:49:00,91.4,31.6,27.61,West,264,9.0,12.8,12,0.00,,,-99.99,FreeWX-Wi 1.01,2013-04-14 17:49:00,
2013-04-14 13:54:00,91.9,32.0,27.61,West,265,9.0,13.2,12,0.00,,,-99.99,FreeWX-Wi 1.01,2013-04-14 17:54:00,
2013-04-14 13:59:00,91.9,32.0,27.61,West,264,9.0,14.5,12,0.00,,,-99.99,FreeWX-Wi 1.01,2013-04-14 17:59:00,
2013-04-14 14:04:00,92.1,32.2,27.61,West,265,8.0,13.6,12,0.00,,,-99.99,FreeWX-Wi 1.01,2013-04-14 18:04:00,
2013-04-14 14:09:00,92.3,32.4,27.61,West,267,8.0,17.9,12,0.00,,,-99.99,FreeWX-Wi 1.01,2013-04-14 18:09:00,
2013-04-14 14:14:00,92.3,32.4,27.61,West,272,9.0,13.2,12,0.00,,,-99.99,FreeWX-Wi 1.01,2013-04-14 18:14:00,
2013-04-14 14:19:00,92.3,32.4,27.61,West,272,9.0,15.0,12,0.00,,,-99.99,FreeWX-Wi 1.01,2013-04-14 18:19:00,
2013-04-14 14:25:00,92.7,32.5,27.61,West,274,9.0,17.0,12,0.00,,,-99.99,FreeWX-Wi 1.01,2013-04-14 18:25:00,
2013-04-14 14:30:00,92.5,32.5,27.61,West,274,10.0,18.8,12,0.00,,,-99.99,FreeWX-Wi 1.01,2013-04-14 18:30:00,
2013-04-14 14:35:00,91.9,32.0,27.58,West,274,10.0,16.3,12,0.00,,,-99.99,FreeWX-Wi 1.01,2013-04-14 18:35:00,
2013-04-14 14:40:00,92.1,32.2,27.58,West,273,10.0,17.4,12,0.00,,,-99.99,FreeWX-Wi 1.01,2013-04-14 18:40:00,
2013-04-14 14:45:00,92.3,32.4,27.58,West,269,11.0,16.8,12,0.00,,,-99.99,FreeWX-Wi 1.01,2013-04-14 18:45:00,
2013-04-14 14:50:00,92.5,32.5,27.58,West,270,11.0,19.2,12,0.00,,,-99.99,FreeWX-Wi 1.01,2013-04-14 18:50:00,
2013-04-14 14:55:00,92.1,32.2,27.58,West,270,11.0,22.8,12,0.00,,,-99.99,FreeWX-Wi 1.01,2013-04-14 18:55:00,
2013-04-14 15:00:00,91.9,32.0,27.58,West,270,11.0,15.9,12,0.00,,,-99.99,FreeWX-Wi 1.01,2013-04-14 19:00:00,
2013-04-14 15:05:00,91.8,31.8,27.58,West,270,11.0,17.0,12,0.00,,,-99.99,FreeWX-Wi 1.01,2013-04-14 19:05:00,
2013-04-14 15:10:00,91.6,31.8,27.58,West,272,11.0,16.8,12,0.00,,,-99.99,FreeWX-Wi 1.01,2013-04-14 19:10:00,
2013-04-14 15:15:00,91.6,31.8,27.58,West,273,11.0,16.3,12,0.00,,,-99.99,FreeWX-Wi 1.01,2013-04-14 19:15:00,
2013-04-14 15:20:00,91.8,31.8,27.58,West,274,11.0,15.9,12,0.00,,,-99.99,FreeWX-Wi 1.01,2013-04-14 19:20:00,
2013-04-14 15:25:00,91.9,32.0,27.58,West,271,11.0,17.9,12,0.00,,,-99.99,FreeWX-Wi 1.01,2013-04-14 19:25:00,
2013-04-14 15:30:00,91.9,32.0,27.58,West,269,10.0,11.0,12,0.00,,,-99.99,FreeWX-Wi 1.01,2013-04-14 19:30:00,
2013-04-14 15:35:00,91.9,32.0,27.58,West,268,10.0,19.2,12,0.00,,,-99.99,FreeWX-Wi 1.01,2013-04-14 19:35:00,
2013-04-14 15:40:00,91.8,31.8,27.58,West,267,10.0,22.4,12,0.00,,,-99.99,FreeWX-Wi 1.01,2013-04-14 19:40:00,
2013-04-14 15:45:00,91.4,31.6,27.58,West,268,11.0,15.4,12,0.00,,,-99.99,FreeWX-Wi 1.01,2013-04-14 19:45:00,
2013-04-14 15:50:00,91.2,31.5,27.58,West,269,11.0,16.3,12,0.00,,,-99.99,FreeWX-Wi 1.01,2013-04-14 19:50:00,
2013-04-14 15:55:00,91.0,31.3,27.58,West,273,11.0,17.4,12,0.00,,,-99.99,FreeWX-Wi 1.01,2013-04-14 19:55:00,
2013-04-14 16:00:00,91.0,31.3,27.58,West,279,12.0,19.2,12,0.00,,,-99.99,FreeWX-Wi 1.01,2013-04-14 20:00:00,
2013-04-14 16:05:00,90.9,31.3,27.55,West,280,12.0,21.5,12,0.00,,,-99.99,FreeWX-Wi 1.01,2013-04-14 20:05:00,
2013-04-14 16:10:00,90.9,31.3,27.55,West,279,11.0,17.4,12,0.00,,,-99.99,FreeWX-Wi 1.01,2013-04-14 20:10:00,
2013-04-14 16:15:00,90.9,31.3,27.55,West,279,11.0,17.4,12,0.00,,,-99.99,FreeWX-Wi 1.01,2013-04-14 20:15:00,
2013-04-14 16:20:00,91.0,31.3,27.55,West,277,12.0,17.0,12,0.00,,,-99.99,FreeWX-Wi 1.01,2013-04-14 20:20:00,
2013-04-14 16:25:00,91.2,31.5,27.55,West,274,12.0,17.4,12,0.00,,,-99.99,FreeWX-Wi 1.01,2013-04-14 20:25:00,
2013-04-14 16:30:00,91.2,31.5,27.55,West,271,11.0,15.9,12,0.00,,,-99.99,FreeWX-Wi 1.01,2013-04-14 20:30:00,
2013-04-14 16:35:00,91.2,31.5,27.55,West,268,11.0,17.0,12,0.00,,,-99.99,FreeWX-Wi 1.01,2013-04-14 20:35:00,
2013-04-14 16:40:00,91.2,31.5,27.55,West,265,10.0,15.0,12,0.00,,,-99.99,FreeWX-Wi 1.01,2013-04-14 20:40:00,
2013-04-14 16:45:00,91.2,31.5,27.55,West,261,10.0,13.6,12,0.00,,,-99.99,FreeWX-Wi 1.01,2013-04-14 20:45:00,
2013-04-14 16:50:00,91.2,31.5,27.55,WSW,256,9.0,12.8,12,0.00,,,-99.99,FreeWX-Wi 1.01,2013-04-14 20:50:00,
2013-04-14 16:55:00,91.4,31.6,27.55,WSW,255,8.0,11.0,12,0.00,,,-99.99,FreeWX-Wi 1.01,2013-04-14 20:55:00,
2013-04-14 17:00:00,91.6,31.8,27.55,WSW,255,8.0,12.8,12,0.00,,,-99.99,FreeWX-Wi 1.01,2013-04-14 21:00:00,
2013-04-14 17:05:00,91.8,31.8,27.52,WSW,257,8.0,12.8,12,0.00,,,-99.99,FreeWX-Wi 1.01,2013-04-14 21:05:00,
2013-04-14 17:10:00,91.8,31.8,27.52,West,259,8.0,17.9,12,0.00,,,-99.99,FreeWX-Wi 1.01,2013-04-14 21:10:00,
2013-04-14 17:15:00,91.6,31.8,27.52,West,262,8.0,15.4,12,0.00,,,-99.99,FreeWX-Wi 1.01,2013-04-14 21:15:00,
2013-04-14 17:20:00,91.6,31.8,27.52,West,265,9.0,17.9,12,0.00,,,-99.99,FreeWX-Wi 1.01,2013-04-14 21:20:00,
2013-04-14 17:25:00,91.6,31.8,27.52,West,264,9.0,17.9,12,0.00,,,-99.99,FreeWX-Wi 1.01,2013-04-14 21:25:00,
2013-04-14 17:30:00,91.4,31.6,27.52,West,265,10.0,15.4,12,0.00,,,-99.99,FreeWX-Wi 1.01,2013-04-14 21:30:00,
2013-04-14 17:35:00,91.4,31.6,27.52,West,268,10.0,17.0,12,0.00,,,-99.99,FreeWX-Wi 1.01,2013-04-14 21:35:00,
2013-04-14 17:40:00,91.2,31.5,27.52,West,270,10.0,13.2,12,0.00,,,-99.99,FreeWX-Wi 1.01,2013-04-14 21:40:00,
2013-04-14 17:45:00,91.2,31.5,27.52,West,270,10.0,15.0,12,0.00,,,-99.99,FreeWX-Wi 1.01,2013-04-14 21:45:00,
2013-04-14 17:50:00,91.4,31.6,27.52,West,268,10.0,15.0,12,0.00,,,-99.99,FreeWX-Wi 1.01,2013-04-14 21:50:00,
2013-04-14 17:55:00,91.4,31.6,27.52,West,268,10.0,15.4,12,0.00,,,-99.99,FreeWX-Wi 1.01,2013-04-14 21:55:00,
2013-04-14 18:00:00,91.4,31.6,27.52,West,264,9.0,13.2,12,0.00,,,-99.99,FreeWX-Wi 1.01,2013-04-14 22:00:00,
2013-04-14 18:05:00,91.2,31.5,27.52,West,262,9.0,22.4,12,0.00,,,-99.99,FreeWX-Wi 1.01,2013-04-14 22:05:00,
2013-04-14 18:10:00,91.0,31.3,27.52,West,259,9.0,10.5,12,0.00,,,-99.99,FreeWX-Wi 1.01,2013-04-14 22:10:00,
2013-04-14 18:15:00,91.2,31.5,27.52,WSW,258,8.0,10.5,12,0.00,,,-99.99,FreeWX-Wi 1.01,2013-04-14 22:15:00,
2013-04-14 18:20:00,91.0,31.3,27.52,West,260,8.0,13.2,12,0.00,,,-99.99,FreeWX-Wi 1.01,2013-04-14 22:20:00,
2013-04-14 18:25:00,90.9,31.3,27.52,West,262,8.0,18.3,12,0.00,,,-99.99,FreeWX-Wi 1.01,2013-04-14 22:25:00,
2013-04-14 18:30:00,90.9,31.3,27.52,West,265,8.0,17.0,12,0.00,,,-99.99,FreeWX-Wi 1.01,2013-04-14 22:30:00,
2013-04-14 18:35:00,90.7,31.1,27.52,West,263,8.0,15.4,12,0.00,,,-99.99,FreeWX-Wi 1.01,2013-04-14 22:35:00,
2013-04-14 18:40:00,90.5,30.9,27.52,West,265,9.0,17.4,12,0.00,,,-99.99,FreeWX-Wi 1.01,2013-04-14 22:40:00,
2013-04-14 18:45:00,90.3,30.7,27.52,West,268,10.0,18.3,12,0.00,,,-99.99,FreeWX-Wi 1.01,2013-04-14 22:45:00,
2013-04-14 18:50:00,90.1,30.7,27.52,West,266,10.0,15.4,12,0.00,,,-99.99,FreeWX-Wi 1.01,2013-04-14 22:50:00,
2013-04-14 18:55:00,90.0,30.6,27.52,West,265,10.0,15.4,12,0.00,,,-99.99,FreeWX-Wi 1.01,2013-04-14 22:55:00,
2013-04-14 19:00:00,90.0,30.6,27.52,West,265,11.0,17.4,12,0.00,,,-99.99,FreeWX-Wi 1.01,2013-04-14 23:00:00,
2013-04-14 19:05:00,89.8,30.4,27.52,West,267,11.0,16.8,12,0.00,,,-99.99,FreeWX-Wi 1.01,2013-04-14 23:05:00,
2013-04-14 19:10:00,89.6,30.2,27.52,West,265,10.0,12.3,12,0.00,,,-99.99,FreeWX-Wi 1.01,2013-04-14 23:10:00,
2013-04-14 19:15:00,89.6,30.2,27.52,West,263,10.0,10.1,12,0.00,,,-99.99,FreeWX-Wi 1.01,2013-04-14 23:15:00,
2013-04-14 19:20:00,89.4,32.0,27.52,West,263,9.0,13.6,13,0.00,,,-99.99,FreeWX-Wi 1.01,2013-04-14 23:20:00,
2013-04-14 19:25:00,89.2,32.0,27.52,West,263,9.0,13.6,13,0.00,,,-99.99,FreeWX-Wi 1.01,2013-04-14 23:25:00,
2013-04-14 19:30:00,88.9,31.6,27.52,West,264,9.0,12.8,13,0.00,,,-99.99,FreeWX-Wi 1.01,2013-04-14 23:30:00,
2013-04-14 19:35:00,88.7,31.5,27.52,West,263,8.0,15.4,13,0.00,,,-99.99,FreeWX-Wi 1.01,2013-04-14 23:35:00,
2013-04-14 19:40:00,88.2,31.1,27.52,West,264,8.0,15.4,13,0.00,,,-99.99,FreeWX-Wi 1.01,2013-04-14 23:40:00,
2013-04-14 19:45:00,88.0,30.9,27.52,West,266,8.0,11.9,13,0.00,,,-99.99,FreeWX-Wi 1.01,2013-04-14 23:45:00,
2013-04-14 19:50:00,87.6,30.7,27.52,West,265,8.0,11.4,13,0.00,,,-99.99,FreeWX-Wi 1.01,2013-04-14 23:50:00,
2013-04-14 19:55:00,87.3,30.4,27.52,West,263,8.0,11.0,13,0.00,,,-99.99,FreeWX-Wi 1.01,2013-04-14 23:55:00,
2013-04-14 20:00:00,87.1,30.2,27.52,West,262,7.0,12.8,13,0.00,,,-99.99,FreeWX-Wi 1.01,2013-04-15 00:00:00,
2013-04-14 20:05:00,86.5,29.8,27.52,West,261,7.0,11.0,13,0.00,,,-99.99,FreeWX-Wi 1.01,2013-04-15 00:05:00,
2013-04-14 20:10:00,86.0,29.5,27.52,West,261,6.0,12.8,13,0.00,,,-99.99,FreeWX-Wi 1.01,2013-04-15 00:10:00,
2013-04-14 20:15:00,85.5,28.9,27.52,West,260,6.0,13.2,13,0.00,,,-99.99,FreeWX-Wi 1.01,2013-04-15 00:15:00,
2013-04-14 20:20:00,84.9,28.6,27.52,West,260,6.0,10.1,13,0.00,,,-99.99,FreeWX-Wi 1.01,2013-04-15 00:20:00,
2013-04-14 20:25:00,84.6,28.2,27.52,West,261,6.0,8.7,13,0.00,,,-99.99,FreeWX-Wi 1.01,2013-04-15 00:25:00,
2013-04-14 20:30:00,84.0,29.7,27.52,West,262,6.0,8.7,14,0.00,,,-99.99,FreeWX-Wi 1.01,2013-04-15 00:30:00,
2013-04-14 20:35:00,83.7,29.5,27.52,West,263,6.0,7.6,14,0.00,,,-99.99,FreeWX-Wi 1.01,2013-04-15 00:35:00,
2013-04-14 20:40:00,83.1,28.9,27.52,West,263,5.0,5.8,14,0.00,,,-99.99,FreeWX-Wi 1.01,2013-04-15 00:40:00,
2013-04-14 20:45:00,82.4,28.4,27.52,West,262,4.0,5.4,14,0.00,,,-99.99,FreeWX-Wi 1.01,2013-04-15 00:45:00,
2013-04-14 20:50:00,81.9,28.0,27.55,West,263,4.0,5.4,14,0.00,,,-99.99,FreeWX-Wi 1.01,2013-04-15 00:50:00,
2013-04-14 20:55:00,81.3,27.5,27.55,West,263,4.0,5.4,14,0.00,,,-99.99,FreeWX-Wi 1.01,2013-04-15 00:55:00,
2013-04-14 21:00:00,80.6,27.0,27.55,West,262,3.0,3.6,14,0.00,,,-99.99,FreeWX-Wi 1.01,2013-04-15 01:00:00,
2013-04-14 21:05:00,79.9,22.8,27.55,West,260,2.0,3.6,12,0.00,,,-99.99,FreeWX-Wi 1.01,2013-04-15 01:05:00,
2013-04-14 21:10:00,79.2,22.1,27.55,West,259,2.0,2.2,12,0.00,,,-99.99,FreeWX-Wi 1.01,2013-04-15 01:10:00,
2013-04-14 21:15:00,78.6,23.7,27.55,West,259,1.0,0.0,13,0.00,,,-99.99,FreeWX-Wi 1.01,2013-04-15 01:15:00,
2013-04-14 21:20:00,78.1,23.2,27.55,North,-999,0.0,0.0,13,0.00,,,-99.99,FreeWX-Wi 1.01,2013-04-15 01:20:00,
2013-04-14 21:25:00,77.4,22.6,27.55,North,-999,0.0,3.6,13,0.00,,,-99.99,FreeWX-Wi 1.01,2013-04-15 01:25:00,
2013-04-14 21:30:00,77.0,22.5,27.55,North,-999,0.0,4.0,13,0.00,,,-99.99,FreeWX-Wi 1.01,2013-04-15 01:30:00,
2013-04-14 21:35:00,76.5,21.9,27.55,North,-999,0.0,4.0,13,0.00,,,-99.99,FreeWX-Wi 1.01,2013-04-15 01:35:00,
2013-04-14 21:40:00,76.1,21.7,27.55,North,-999,0.0,0.0,13,0.00,,,-99.99,FreeWX-Wi 1.01,2013-04-15 01:40:00,
2013-04-14 21:45:00,75.7,21.4,27.55,North,-999,0.0,0.0,13,0.00,,,-99.99,FreeWX-Wi 1.01,2013-04-15 01:45:00,
2013-04-14 21:50:00,75.4,21.2,27.55,North,-999,0.0,0.0,13,0.00,,,-99.99,FreeWX-Wi 1.01,2013-04-15 01:50:00,
2013-04-14 21:55:00,75.0,20.8,27.55,North,-999,0.0,0.0,13,0.00,,,-99.99,FreeWX-Wi 1.01,2013-04-15 01:55:00,
2013-04-14 22:00:00,74.7,20.5,27.55,North,-999,0.0,0.0,13,0.00,,,-99.99,FreeWX-Wi 1.01,2013-04-15 02:00:00,
2013-04-14 22:05:00,74.3,20.3,27.55,North,-999,0.0,0.0,13,0.00,,,-99.99,FreeWX-Wi 1.01,2013-04-15 02:05:00,
2013-04-14 22:10:00,73.9,19.9,27.55,North,-999,0.0,0.0,13,0.00,,,-99.99,FreeWX-Wi 1.01,2013-04-15 02:10:00,
2013-04-14 22:16:00,73.8,19.9,27.55,North,-999,0.0,0.0,13,0.00,,,-99.99,FreeWX-Wi 1.01,2013-04-15 02:16:00,
2013-04-14 22:21:00,73.6,19.8,27.55,North,-999,0.0,0.0,13,0.00,,,-99.99,FreeWX-Wi 1.01,2013-04-15 02:21:00,
2013-04-14 22:26:00,73.4,19.6,27.55,North,-999,0.0,3.1,13,0.00,,,-99.99,FreeWX-Wi 1.01,2013-04-15 02:26:00,
2013-04-14 22:31:00,73.0,21.0,27.55,North,-999,0.0,3.1,14,0.00,,,-99.99,FreeWX-Wi 1.01,2013-04-15 02:31:00,
2013-04-14 22:36:00,72.9,20.8,27.58,North,-999,0.0,0.0,14,0.00,,,-99.99,FreeWX-Wi 1.01,2013-04-15 02:36:00,
2013-04-14 22:41:00,72.7,20.7,27.58,North,-999,0.0,2.2,14,0.00,,,-99.99,FreeWX-Wi 1.01,2013-04-15 02:41:00,
2013-04-14 22:46:00,72.3,20.5,27.58,North,-999,0.0,0.0,14,0.00,,,-99.99,FreeWX-Wi 1.01,2013-04-15 02:46:00,
2013-04-14 22:51:00,72.0,20.1,27.58,North,-999,0.0,0.0,14,0.00,,,-99.99,FreeWX-Wi 1.01,2013-04-15 02:51:00,
2013-04-14 22:56:00,71.6,19.9,27.58,North,-999,0.0,0.0,14,0.00,,,-99.99,FreeWX-Wi 1.01,2013-04-15 02:56:00,
2013-04-14 23:01:00,71.2,19.6,27.58,North,-999,0.0,0.0,14,0.00,,,-99.99,FreeWX-Wi 1.01,2013-04-15 03:01:00,
2013-04-14 23:06:00,70.9,19.4,27.58,North,-999,0.0,0.0,14,0.00,,,-99.99,FreeWX-Wi 1.01,2013-04-15 03:06:00,
2013-04-14 23:11:00,70.5,19.0,27.58,North,-999,0.0,0.0,14,0.00,,,-99.99,FreeWX-Wi 1.01,2013-04-15 03:11:00,
2013-04-14 23:21:00,69.6,19.9,27.58,WSW,238,1.0,6.7,15,0.00,,,-99.99,FreeWX-Wi 1.01,2013-04-15 03:21:00,
2013-04-14 23:26:00,69.6,19.9,27.58,SW,227,2.0,5.8,15,0.00,,,-99.99,FreeWX-Wi 1.01,2013-04-15 03:26:00,
2013-04-14 23:31:00,69.6,19.9,27.58,SW,219,2.0,5.4,15,0.00,,,-99.99,FreeWX-Wi 1.01,2013-04-15 03:31:00,
2013-04-14 23:37:00,69.4,19.8,27.58,SSW,212,2.0,4.9,15,0.00,,,-99.99,FreeWX-Wi 1.01,2013-04-15 03:37:00,
2013-04-14 23:42:00,69.4,19.8,27.58,SSW,206,3.0,6.3,15,0.00,,,-99.99,FreeWX-Wi 1.01,2013-04-15 03:42:00,
2013-04-14 23:47:00,69.4,19.8,27.58,SSW,211,3.0,4.9,15,0.00,,,-99.99,FreeWX-Wi 1.01,2013-04-15 03:47:00,
2013-04-14 23:52:00,69.4,19.8,27.58,SW,216,3.0,5.4,15,0.00,,,-99.99,FreeWX-Wi 1.01,2013-04-15 03:52:00,
2013-04-14 23:57:00,69.4,19.8,27.58,SW,218,3.0,7.6,15,0.00,,,-99.99,FreeWX-Wi 1.01,2013-04-15 03:57:00,